Regional Weather Roundup
Issued by NWS

Home | Current Version | Previous Version | Text Only | Print | Product List | Glossary On
Versions: 1 2 3 4 5 6 7 8 9 10 11 12 13 14 15 16 17 18 19 20 21 22 23 24 25 26 27
000
ASUS44 KBMX 201110
RWRAL

ALABAMA REGIONAL WEATHER ROUNDUP
NATIONAL WEATHER SERVICE BIRMINGHAM AL
600 AM CDT SUN APR 20 2014

NOTE: "FAIR" INDICATES FEW OR NO CLOUDS BELOW 12,000 FEET
WITH NO SIGNIFICANT WEATHER AND/OR OBSTRUCTIONS TO VISIBILITY.

THE REMARK "TC" DENOTES TEMPERATURE IN DEGREES CELSIUS.

ALZ001>011-014-016>018-020-201200-
NORTH ALABAMA

CITY           SKY/WX    TMP DP  RH WIND       PRES   REMARKS
MUSCLE SHOALS  CLEAR     45  41  86 CALM      30.22R
HUNTSVILLE     PTCLDY    47  43  86 E6        30.21R
DECATUR        CLEAR     44  42  93 CALM      30.22R
HALEYVILLE     FAIR      47  43  86 SE3       30.23R
GADSDEN        NOT AVBL
$$

ALZ012-013-022-023-030>036-040>044-201200-
WEST CENTRAL ALABAMA

CITY           SKY/WX    TMP DP  RH WIND       PRES   REMARKS
TUSCALOOSA     CLEAR     47  45  93 CALM      30.21R
$$

ALZ015-024>027-033>036-040>044-201200-
CENTRAL ALABAMA

CITY           SKY/WX    TMP DP  RH WIND       PRES   REMARKS
BIRMINGHAM     PTCLDY    55  41  59 NE3       30.23R
MONTGOMERY     CLOUDY    57  47  69 NE9       30.17R
SHELBY CO ARPT CLEAR     52  45  77 CALM      30.21R
MAXWELL AFB    CLOUDY    62  54  75 NE8       30.17R
GREENVILLE     CLOUDY    55  48  77 NE9       30.14R
$$

ALZ019-021-028-029-037-038-045>048-201200-
EAST CENTRAL ALABAMA

CITY           SKY/WX    TMP DP  RH WIND       PRES   REMARKS
ANNISTON       CLEAR     50  43  77 CALM      30.21R
ALEXANDER CITY CLOUDY    55  45  68 N5        30.19R
AUBURN         CLOUDY    52  45  76 NE14      30.19R
$$

ALZ051>064-201200-
SOUTHWEST ALABAMA

CITY           SKY/WX    TMP DP  RH WIND       PRES   REMARKS
MOBILE         PTCLDY    54  52  93 CALM      30.16R
BROOKLEY FIELD CLEAR     54  52  93 NW3       30.17R
EVERGREEN      CLEAR     53  47  79 N3        30.17R
$$

ALZ049-050-065>069-201200-
SOUTHEAST ALABAMA

CITY           SKY/WX    TMP DP  RH WIND       PRES   REMARKS
DOTHAN         CLOUDY    54  50  86 NE8       30.15R
OZARK          CLOUDY    54  51  87 NE10      30.12R
TROY           CLOUDY    55  48  77 NE8       30.15R
EUFAULA        CLOUDY    55  49  80 VRB5      30.14R
$$



USA.gov is the U.S. government's official web portal to all federal, state and local government web resources and services.